Location: Caserta
(41.0670°N, 14.3330°E)
Time: 13:12:14
(UTC+02:00)

STARLINK-1329 - Pass Details

Date: 11 October 2020
Orbit: 549 x 550 km, 53.0° (Epoch: 21 October)

Event Time Altitude Azimuth Distance (km) Brightness Sun altitude
Exits shadow 06:14:48 - 317° (NW) 2,105 6.2 -11.2°
Reaches altitude 10° 06:15:34 10° 321° (NW) 1,825 5.9 -11.1°
Maximum altitude 06:19:24 36° 28° (NNE) 887 4.9 -10.4°
Drops below altitude 10° 06:23:14 10° 96° (E) 1,819 7.9 -9.6°
Sets 06:25:36 0° 105° (ESE) 2,710 9.0 -9.2°
